Time,TemperatureF,DewpointF,PressureIn,WindDirection,WindDirectionDegrees,WindSpeedMPH,WindSpeedGustMPH,Humidity,HourlyPrecipIn,Conditions,Clouds,dailyrainin,SoftwareType,DateUTC
2013-03-12 00:08:00,58.9,48.7,29.64,SW,217,15.0,16.0,69,0.00,,,0.00,Wunderground v.1.15,2013-03-11 23:08:00,
2013-03-12 00:19:00,58.5,49.5,29.64,SW,236,13.0,13.0,72,0.00,,,0.00,Wunderground v.1.15,2013-03-11 23:19:00,
2013-03-12 00:29:00,58.5,49.9,29.64,SW,232,13.0,20.0,73,0.00,,,0.00,Wunderground v.1.15,2013-03-11 23:29:00,
2013-03-12 00:38:00,58.7,49.3,29.64,SW,223,16.0,16.0,71,0.00,,,0.00,Wunderground v.1.15,2013-03-11 23:38:00,
2013-03-12 00:43:00,58.6,49.6,29.63,SW,233,15.0,17.0,72,0.00,,,0.00,Wunderground v.1.15,2013-03-11 23:43:00,
2013-03-12 00:48:00,58.6,49.6,29.64,WSW,244,15.0,17.0,72,0.00,,,0.00,Wunderground v.1.15,2013-03-11 23:48:00,
2013-03-12 00:54:00,58.5,49.1,29.63,SW,231,15.0,18.0,71,0.00,,,0.00,Wunderground v.1.15,2013-03-11 23:54:00,
2013-03-12 01:04:00,58.4,49.4,29.63,SW,235,13.0,13.0,72,0.00,,,0.00,Wunderground v.1.15,2013-03-12 00:04:00,
2013-03-12 01:09:00,58.4,48.7,29.63,SW,234,12.0,13.0,70,0.00,,,0.00,Wunderground v.1.15,2013-03-12 00:09:00,
2013-03-12 01:15:00,58.6,47.7,29.63,WSW,246,12.0,15.0,67,0.00,,,0.00,Wunderground v.1.15,2013-03-12 00:15:00,
2013-03-12 01:24:00,58.6,48.5,29.63,WSW,238,16.0,16.0,69,0.00,,,0.00,Wunderground v.1.15,2013-03-12 00:24:00,
2013-03-12 01:34:00,58.4,48.3,29.63,SW,232,14.0,14.0,69,0.00,,,0.00,Wunderground v.1.15,2013-03-12 00:34:00,
2013-03-12 01:45:00,58.5,46.4,29.63,WSW,245,12.0,13.0,64,0.00,,,0.00,Wunderground v.1.15,2013-03-12 00:45:00,
2013-03-12 02:04:00,58.9,45.9,29.62,WSW,257,17.0,19.0,62,0.00,,,0.00,Wunderground v.1.15,2013-03-12 01:04:00,
2013-03-12 02:09:00,58.8,46.2,29.62,WSW,250,18.0,19.0,63,0.00,,,0.00,Wunderground v.1.15,2013-03-12 01:09:00,
2013-03-12 02:14:00,58.7,46.1,29.61,SW,232,16.0,16.0,63,0.00,,,0.00,Wunderground v.1.15,2013-03-12 01:14:00,
2013-03-12 02:24:00,58.8,46.2,29.61,WSW,248,16.0,19.0,63,0.00,,,0.00,Wunderground v.1.15,2013-03-12 01:24:00,
2013-03-12 02:29:00,58.7,46.1,29.61,SW,234,17.0,19.0,63,0.00,,,0.00,Wunderground v.1.15,2013-03-12 01:29:00,
2013-03-12 02:39:00,58.6,46.5,29.61,WSW,239,17.0,27.0,64,0.00,,,0.00,Wunderground v.1.15,2013-03-12 01:39:00,
2013-03-12 02:44:00,58.5,46.8,29.61,SW,227,17.0,17.0,65,0.00,,,0.00,Wunderground v.1.15,2013-03-12 01:44:00,
2013-03-12 02:54:00,58.5,46.8,29.61,WSW,243,16.0,17.0,65,0.00,,,0.00,Wunderground v.1.15,2013-03-12 01:54:00,
2013-03-12 03:04:00,58.3,46.6,29.61,SW,235,13.0,17.0,65,0.00,,,0.00,Wunderground v.1.15,2013-03-12 02:04:00,
2013-03-12 03:09:00,58.3,46.6,29.61,WSW,250,13.0,17.0,65,0.00,,,0.00,Wunderground v.1.15,2013-03-12 02:09:00,
2013-03-12 03:14:00,58.3,46.6,29.61,West,276,13.0,14.0,65,0.00,,,0.00,Wunderground v.1.15,2013-03-12 02:14:00,
2013-03-12 03:24:00,58.2,46.9,29.61,WSW,250,14.0,19.0,66,0.00,,,0.00,Wunderground v.1.15,2013-03-12 02:24:00,
2013-03-12 03:29:00,58.2,46.5,29.61,WSW,245,15.0,19.0,65,0.00,,,0.00,Wunderground v.1.15,2013-03-12 02:29:00,
2013-03-12 03:39:00,58.2,46.5,29.60,WSW,247,14.0,17.0,65,0.00,,,0.00,Wunderground v.1.15,2013-03-12 02:39:00,
2013-03-12 03:49:00,58.0,47.1,29.60,West,277,13.0,14.0,67,0.00,,,0.00,Wunderground v.1.15,2013-03-12 02:49:00,
2013-03-12 03:59:00,57.8,47.7,29.60,WSW,247,14.0,14.0,69,0.00,,,0.00,Wunderground v.1.15,2013-03-12 02:59:00,
2013-03-12 04:09:00,57.6,47.1,29.59,West,263,13.0,18.0,68,0.00,,,0.00,Wunderground v.1.15,2013-03-12 03:09:00,
2013-03-12 04:14:00,57.6,46.7,29.59,SW,231,14.0,14.0,67,0.00,,,0.00,Wunderground v.1.15,2013-03-12 03:14:00,
2013-03-12 04:19:00,57.5,46.6,29.59,WSW,242,14.0,14.0,67,0.00,,,0.00,Wunderground v.1.15,2013-03-12 03:19:00,
2013-03-12 04:29:00,57.4,46.9,29.59,West,266,15.0,17.0,68,0.00,,,0.00,Wunderground v.1.15,2013-03-12 03:29:00,
2013-03-12 04:39:00,57.1,46.6,29.59,West,265,14.0,15.0,68,0.00,,,0.00,Wunderground v.1.15,2013-03-12 03:39:00,
2013-03-12 04:44:00,57.1,46.6,29.59,SW,236,15.0,15.0,68,0.00,,,0.00,Wunderground v.1.15,2013-03-12 03:44:00,
2013-03-12 04:49:00,56.9,46.4,29.59,WSW,252,14.0,15.0,68,0.00,,,0.00,Wunderground v.1.15,2013-03-12 03:49:00,
2013-03-12 05:04:00,56.7,46.6,29.59,WSW,241,12.0,12.0,69,0.00,,,0.00,Wunderground v.1.15,2013-03-12 04:04:00,
2013-03-12 05:09:00,56.6,45.8,29.59,WSW,244,11.0,15.0,67,0.00,,,0.00,Wunderground v.1.15,2013-03-12 04:09:00,
2013-03-12 05:19:00,56.7,45.5,29.58,WSW,251,13.0,23.0,66,0.00,,,0.00,Wunderground v.1.15,2013-03-12 04:19:00,
2013-03-12 05:24:00,56.7,45.5,29.58,West,267,14.0,23.0,66,0.00,,,0.00,Wunderground v.1.15,2013-03-12 04:24:00,
2013-03-12 05:34:00,56.6,45.4,29.58,SW,227,14.0,14.0,66,0.00,,,0.00,Wunderground v.1.15,2013-03-12 04:34:00,
2013-03-12 05:39:00,56.6,45.0,29.58,WSW,244,14.0,15.0,65,0.00,,,0.00,Wunderground v.1.15,2013-03-12 04:39:00,
2013-03-12 05:49:00,56.4,46.0,29.58,SW,225,13.0,16.0,68,0.00,,,0.00,Wunderground v.1.15,2013-03-12 04:49:00,
2013-03-12 05:59:00,56.4,46.0,29.59,SW,232,15.0,15.0,68,0.00,,,0.00,Wunderground v.1.15,2013-03-12 04:59:00,
2013-03-12 06:09:00,56.3,45.9,29.58,WSW,248,15.0,15.0,68,0.00,,,0.00,Wunderground v.1.15,2013-03-12 05:09:00,
2013-03-12 06:14:00,56.3,46.3,29.58,South,189,14.0,15.0,69,0.00,,,0.00,Wunderground v.1.15,2013-03-12 05:14:00,
2013-03-12 06:23:00,56.1,46.4,29.58,WSW,251,14.0,19.0,70,0.00,,,0.00,Wunderground v.1.15,2013-03-12 05:23:00,
2013-03-12 06:33:00,56.0,46.4,29.58,WSW,250,14.0,19.0,70,0.00,,,0.00,Wunderground v.1.15,2013-03-12 05:33:00,
2013-03-12 06:39:00,56.0,46.0,29.58,WSW,248,13.0,19.0,69,0.00,,,0.00,Wunderground v.1.15,2013-03-12 05:39:00,
2013-03-12 06:49:00,56.0,46.4,29.58,WSW,247,14.0,21.0,70,0.00,,,0.00,Wunderground v.1.15,2013-03-12 05:49:00,
2013-03-12 06:59:00,56.0,46.7,29.58,West,259,11.0,12.0,71,0.00,,,0.00,Wunderground v.1.15,2013-03-12 05:59:00,
2013-03-12 07:09:00,55.9,46.3,29.58,SW,236,12.0,12.0,70,0.00,,,0.00,Wunderground v.1.15,2013-03-12 06:09:00,
2013-03-12 07:14:00,55.8,46.2,29.58,SW,224,12.0,12.0,70,0.00,,,0.00,Wunderground v.1.15,2013-03-12 06:14:00,
2013-03-12 07:19:00,55.8,46.5,29.58,WSW,242,12.0,12.0,71,0.00,,,0.00,Wunderground v.1.15,2013-03-12 06:19:00,
2013-03-12 07:33:00,55.9,46.6,29.59,SW,227,10.0,10.0,71,0.00,,,0.00,Wunderground v.1.15,2013-03-12 06:33:00,
2013-03-12 07:39:00,55.9,46.3,29.59,SW,229,10.0,10.0,70,0.00,,,0.00,Wunderground v.1.15,2013-03-12 06:39:00,
2013-03-12 07:44:00,56.0,46.4,29.59,WSW,253,10.0,10.0,70,0.00,,,0.00,Wunderground v.1.15,2013-03-12 06:44:00,
2013-03-12 07:54:00,56.1,46.1,29.59,WSW,238,9.0,11.0,69,0.00,,,0.00,Wunderground v.1.15,2013-03-12 06:54:00,
2013-03-12 08:03:00,56.4,45.6,29.59,SW,225,11.0,11.0,67,0.00,,,0.00,Wunderground v.1.15,2013-03-12 07:03:00,
2013-03-12 08:09:00,56.6,45.4,29.60,West,265,11.0,14.0,66,0.00,,,0.00,Wunderground v.1.15,2013-03-12 07:09:00,
2013-03-12 08:14:00,56.6,45.8,29.60,West,264,11.0,11.0,67,0.00,,,0.00,Wunderground v.1.15,2013-03-12 07:14:00,
2013-03-12 08:19:00,56.7,45.5,29.60,WSW,249,11.0,12.0,66,0.00,,,0.00,Wunderground v.1.15,2013-03-12 07:19:00,
2013-03-12 08:29:00,56.9,45.7,29.61,SW,234,10.0,11.0,66,0.00,,,0.00,Wunderground v.1.15,2013-03-12 07:29:00,
2013-03-12 08:39:00,57.0,45.3,29.61,WSW,253,10.0,10.0,65,0.00,,,0.00,Wunderground v.1.15,2013-03-12 07:39:00,
2013-03-12 08:44:00,57.2,45.5,29.61,West,264,8.0,9.0,65,0.00,,,0.00,Wunderground v.1.15,2013-03-12 07:44:00,
2013-03-12 08:53:00,57.6,45.5,29.61,WSW,243,10.0,10.0,64,0.00,,,0.00,Wunderground v.1.15,2013-03-12 07:53:00,
2013-03-12 09:03:00,57.7,45.2,29.62,WSW,255,10.0,10.0,63,0.00,,,0.00,Wunderground v.1.15,2013-03-12 08:03:00,
2013-03-12 09:09:00,57.6,44.7,29.62,WSW,244,11.0,14.0,62,0.00,,,0.00,Wunderground v.1.15,2013-03-12 08:09:00,
2013-03-12 09:14:00,57.5,46.2,29.63,WSW,244,10.0,12.0,66,0.00,,,0.00,Wunderground v.1.15,2013-03-12 08:14:00,
2013-03-12 09:23:00,57.3,46.0,29.63,West,263,11.0,11.0,66,0.00,,,0.00,Wunderground v.1.15,2013-03-12 08:23:00,
2013-03-12 09:29:00,57.2,46.3,29.63,SW,214,11.0,11.0,67,0.00,,,0.00,Wunderground v.1.15,2013-03-12 08:29:00,
2013-03-12 09:39:00,57.2,46.7,29.63,SW,233,9.0,10.0,68,0.00,,,0.00,Wunderground v.1.15,2013-03-12 08:39:00,
2013-03-12 09:44:00,57.2,45.9,29.63,SW,236,10.0,11.0,66,0.00,,,0.00,Wunderground v.1.15,2013-03-12 08:44:00,
2013-03-12 09:49:00,57.4,45.7,29.63,WSW,251,11.0,11.0,65,0.00,,,0.00,Wunderground v.1.15,2013-03-12 08:49:00,
2013-03-12 09:59:00,57.5,45.8,29.63,WSW,254,11.0,11.0,65,0.00,,,0.00,Wunderground v.1.15,2013-03-12 08:59:00,
2013-03-12 10:09:00,57.8,45.7,29.63,West,259,10.0,12.0,64,0.00,,,0.00,Wunderground v.1.15,2013-03-12 09:09:00,
2013-03-12 10:14:00,57.8,46.1,29.63,SW,215,11.0,12.0,65,0.00,,,0.00,Wunderground v.1.15,2013-03-12 09:14:00,
2013-03-12 10:19:00,57.9,46.2,29.63,WSW,253,11.0,15.0,65,0.00,,,0.00,Wunderground v.1.15,2013-03-12 09:19:00,
2013-03-12 10:29:00,58.0,46.3,29.63,SW,224,11.0,11.0,65,0.00,,,0.00,Wunderground v.1.15,2013-03-12 09:29:00,
2013-03-12 10:38:00,58.1,46.0,29.63,WSW,241,11.0,13.0,64,0.00,,,0.00,Wunderground v.1.15,2013-03-12 09:38:00,
2013-03-12 10:44:00,58.1,46.0,29.63,WSW,251,11.0,13.0,64,0.00,,,0.00,Wunderground v.1.15,2013-03-12 09:44:00,
2013-03-12 10:53:00,58.4,46.7,29.62,WSW,244,11.0,15.0,65,0.00,,,0.00,Wunderground v.1.15,2013-03-12 09:53:00,
2013-03-12 11:03:00,58.6,45.6,29.63,SW,214,11.0,14.0,62,0.00,,,0.00,Wunderground v.1.15,2013-03-12 10:03:00,
2013-03-12 11:09:00,58.7,46.1,29.62,WSW,253,11.0,14.0,63,0.00,,,0.00,Wunderground v.1.15,2013-03-12 10:09:00,
2013-03-12 11:14:00,58.9,45.5,29.62,WSW,250,10.0,14.0,61,0.00,,,0.00,Wunderground v.1.15,2013-03-12 10:14:00,
2013-03-12 11:23:00,59.1,45.7,29.63,West,259,10.0,10.0,61,0.00,,,0.00,Wunderground v.1.15,2013-03-12 10:23:00,
2013-03-12 11:29:00,59.4,44.2,29.63,WSW,253,10.0,15.0,57,0.00,,,0.00,Wunderground v.1.15,2013-03-12 10:29:00,
2013-03-12 11:39:00,59.7,42.5,29.62,WSW,252,11.0,11.0,53,0.00,,,0.00,Wunderground v.1.15,2013-03-12 10:39:00,
2013-03-12 11:44:00,59.6,42.9,29.63,WSW,248,11.0,14.0,54,0.00,,,0.00,Wunderground v.1.15,2013-03-12 10:44:00,
2013-03-12 11:54:00,59.9,41.7,29.63,West,269,11.0,13.0,51,0.00,,,0.00,Wunderground v.1.15,2013-03-12 10:54:00,
2013-03-12 12:00:00,60.2,42.0,29.62,WSW,252,10.0,10.0,51,0.00,,,0.00,Wunderground v.1.15,2013-03-12 11:00:00,
2013-03-12 12:09:00,60.5,39.0,29.63,WSW,246,10.0,11.0,45,0.00,,,0.00,Wunderground v.1.15,2013-03-12 11:09:00,
2013-03-12 12:14:00,60.3,42.1,29.62,West,260,11.0,12.0,51,0.00,,,0.00,Wunderground v.1.15,2013-03-12 11:14:00,
2013-03-12 12:19:00,60.2,41.5,29.62,WSW,242,11.0,15.0,50,0.00,,,0.00,Wunderground v.1.15,2013-03-12 11:19:00,
2013-03-12 12:30:00,60.1,40.9,29.62,West,266,10.0,11.0,49,0.00,,,0.00,Wunderground v.1.15,2013-03-12 11:30:00,
2013-03-12 12:39:00,60.8,41.5,29.62,West,260,9.0,15.0,49,0.00,,,0.00,Wunderground v.1.15,2013-03-12 11:39:00,
2013-03-12 12:44:00,60.2,41.5,29.63,West,267,10.0,10.0,50,0.00,,,0.00,Wunderground v.1.15,2013-03-12 11:44:00,
2013-03-12 12:49:00,60.0,41.3,29.62,West,275,11.0,11.0,50,0.00,,,0.00,Wunderground v.1.15,2013-03-12 11:49:00,
2013-03-12 12:59:00,60.2,41.5,29.62,WSW,252,9.0,9.0,50,0.00,,,0.00,Wunderground v.1.15,2013-03-12 11:59:00,
2013-03-12 13:09:00,60.3,42.1,29.62,SW,229,8.0,8.0,51,0.00,,,0.00,Wunderground v.1.15,2013-03-12 12:09:00,
2013-03-12 13:14:00,60.2,42.5,29.62,West,277,8.0,8.0,52,0.00,,,0.00,Wunderground v.1.15,2013-03-12 12:14:00,
2013-03-12 13:19:00,60.8,42.0,29.62,WNW,288,8.0,11.0,50,0.00,,,0.00,Wunderground v.1.15,2013-03-12 12:19:00,
2013-03-12 13:29:00,60.2,42.5,29.61,West,259,10.0,12.0,52,0.00,,,0.00,Wunderground v.1.15,2013-03-12 12:29:00,
2013-03-12 13:39:00,60.1,42.4,29.61,SW,233,10.0,13.0,52,0.00,,,0.00,Wunderground v.1.15,2013-03-12 12:39:00,
2013-03-12 13:44:00,59.8,42.1,29.61,SW,215,9.0,13.0,52,0.00,,,0.00,Wunderground v.1.15,2013-03-12 12:44:00,
2013-03-12 13:54:00,59.2,45.3,29.61,SSW,207,7.0,9.0,60,0.00,,,0.00,Wunderground v.1.15,2013-03-12 12:54:00,
2013-03-12 14:04:00,59.0,46.4,29.61,SW,215,8.0,8.0,63,0.00,,,0.00,Wunderground v.1.15,2013-03-12 13:04:00,
2013-03-12 14:09:00,58.8,47.5,29.61,West,259,10.0,11.0,66,0.00,,,0.00,Wunderground v.1.15,2013-03-12 13:09:00,
2013-03-12 14:14:00,58.8,47.1,29.61,SW,228,10.0,10.0,65,0.00,,,0.00,Wunderground v.1.15,2013-03-12 13:14:00,
2013-03-12 14:24:00,58.9,46.7,29.60,SW,233,11.0,14.0,64,0.00,,,0.00,Wunderground v.1.15,2013-03-12 13:24:00,
2013-03-12 14:29:00,58.3,46.2,29.60,WSW,242,11.0,14.0,64,0.00,,,0.00,Wunderground v.1.15,2013-03-12 13:29:00,
2013-03-12 14:39:00,58.1,46.8,29.60,WSW,240,11.0,16.0,66,0.00,,,0.00,Wunderground v.1.15,2013-03-12 13:39:00,
2013-03-12 14:44:00,57.9,47.0,29.60,SW,236,11.0,11.0,67,0.00,,,0.00,Wunderground v.1.15,2013-03-12 13:44:00,
2013-03-12 14:54:00,58.0,48.3,29.60,WSW,238,11.0,13.0,70,0.00,,,0.00,Wunderground v.1.15,2013-03-12 13:54:00,
2013-03-12 15:04:00,58.4,47.1,29.60,SSW,206,10.0,11.0,66,0.00,,,0.00,Wunderground v.1.15,2013-03-12 14:04:00,
2013-03-12 15:09:00,58.5,47.6,29.60,South,178,10.0,13.0,67,0.00,,,0.00,Wunderground v.1.15,2013-03-12 14:09:00,
2013-03-12 15:14:00,58.4,47.1,29.60,WSW,244,11.0,11.0,66,0.00,,,0.00,Wunderground v.1.15,2013-03-12 14:14:00,
2013-03-12 15:24:00,58.5,47.2,29.60,SSW,212,10.0,12.0,66,0.00,,,0.00,Wunderground v.1.15,2013-03-12 14:24:00,
2013-03-12 15:34:00,57.8,46.5,29.60,SW,214,11.0,16.0,66,0.00,,,0.00,Wunderground v.1.15,2013-03-12 14:34:00,
2013-03-12 15:39:00,57.9,46.2,29.60,SW,231,11.0,16.0,65,0.00,,,0.00,Wunderground v.1.15,2013-03-12 14:39:00,
2013-03-12 15:44:00,58.0,46.7,29.60,SW,225,11.0,14.0,66,0.00,,,0.00,Wunderground v.1.15,2013-03-12 14:44:00,
2013-03-12 15:49:00,58.1,47.2,29.60,South,184,11.0,14.0,67,0.00,,,0.00,Wunderground v.1.15,2013-03-12 14:49:00,
2013-03-12 16:04:00,57.7,46.4,29.60,SW,221,10.0,10.0,66,0.00,,,0.00,Wunderground v.1.15,2013-03-12 15:04:00,
2013-03-12 16:09:00,57.7,46.4,29.59,SSW,213,10.0,10.0,66,0.00,,,0.00,Wunderground v.1.15,2013-03-12 15:09:00,
2013-03-12 16:14:00,57.7,46.8,29.59,SW,221,9.0,11.0,67,0.00,,,0.00,Wunderground v.1.15,2013-03-12 15:14:00,
2013-03-12 16:24:00,57.9,47.4,29.59,SSW,209,9.0,11.0,68,0.00,,,0.00,Wunderground v.1.15,2013-03-12 15:24:00,
2013-03-12 16:29:00,57.3,46.4,29.59,SW,236,10.0,11.0,67,0.00,,,0.00,Wunderground v.1.15,2013-03-12 15:29:00,
2013-03-12 16:39:00,57.1,46.6,29.58,South,182,9.0,12.0,68,0.00,,,0.00,Wunderground v.1.15,2013-03-12 15:39:00,
2013-03-12 16:44:00,57.0,46.5,29.58,SSW,205,9.0,9.0,68,0.00,,,0.00,Wunderground v.1.15,2013-03-12 15:44:00,
2013-03-12 16:49:00,57.0,46.5,29.58,SSW,212,9.0,9.0,68,0.00,,,0.00,Wunderground v.1.15,2013-03-12 15:49:00,
2013-03-12 17:04:00,56.6,45.8,29.58,SSW,195,11.0,11.0,67,0.00,,,0.00,Wunderground v.1.15,2013-03-12 16:04:00,
2013-03-12 17:09:00,56.7,46.6,29.58,SW,236,11.0,11.0,69,0.00,,,0.00,Wunderground v.1.15,2013-03-12 16:09:00,
2013-03-12 17:14:00,56.6,45.8,29.58,SW,228,10.0,10.0,67,0.00,,,0.00,Wunderground v.1.15,2013-03-12 16:14:00,
2013-03-12 17:24:00,56.6,46.5,29.59,SW,223,9.0,9.0,69,0.00,,,0.00,Wunderground v.1.15,2013-03-12 16:24:00,
2013-03-12 17:29:00,56.7,47.4,29.58,West,261,10.0,11.0,71,0.00,,,0.00,Wunderground v.1.15,2013-03-12 16:29:00,
2013-03-12 17:39:00,56.5,46.4,29.58,SW,229,9.0,10.0,69,0.00,,,0.00,Wunderground v.1.15,2013-03-12 16:39:00,
2013-03-12 17:44:00,56.6,46.5,29.58,SW,219,9.0,9.0,69,0.00,,,0.00,Wunderground v.1.15,2013-03-12 16:44:00,
2013-03-12 17:54:00,56.6,46.5,29.58,SW,227,7.0,7.0,69,0.00,,,0.00,Wunderground v.1.15,2013-03-12 16:54:00,
2013-03-12 18:04:00,56.6,46.5,29.58,SW,219,7.0,7.0,69,0.00,,,0.00,Wunderground v.1.15,2013-03-12 17:04:00,
2013-03-12 18:09:00,56.5,46.1,29.58,SW,229,7.0,7.0,68,0.00,,,0.00,Wunderground v.1.15,2013-03-12 17:09:00,
2013-03-12 18:14:00,56.6,46.5,29.58,SW,221,6.0,6.0,69,0.00,,,0.00,Wunderground v.1.15,2013-03-12 17:14:00,
2013-03-12 18:19:00,56.5,46.1,29.58,SW,235,6.0,7.0,68,0.00,,,0.00,Wunderground v.1.15,2013-03-12 17:19:00,
2013-03-12 18:34:00,56.5,46.4,29.58,SW,225,6.0,6.0,69,0.00,,,0.00,Wunderground v.1.15,2013-03-12 17:34:00,
2013-03-12 18:39:00,56.4,45.6,29.58,SW,219,6.0,8.0,67,0.00,,,0.00,Wunderground v.1.15,2013-03-12 17:39:00,
2013-03-12 18:44:00,56.5,46.4,29.58,SSW,201,6.0,6.0,69,0.00,,,0.00,Wunderground v.1.15,2013-03-12 17:44:00,
2013-03-12 18:54:00,56.4,46.7,29.58,SW,231,6.0,8.0,70,0.00,,,0.00,Wunderground v.1.15,2013-03-12 17:54:00,
2013-03-12 18:59:00,56.4,47.1,29.58,South,186,6.0,6.0,71,0.00,,,0.00,Wunderground v.1.15,2013-03-12 17:59:00,
2013-03-12 19:09:00,56.3,47.0,29.58,SW,230,5.0,7.0,71,0.00,,,0.00,Wunderground v.1.15,2013-03-12 18:09:00,
2013-03-12 19:14:00,56.2,46.9,29.58,SW,221,5.0,7.0,71,0.00,,,0.00,Wunderground v.1.15,2013-03-12 18:14:00,
2013-03-12 19:19:00,56.4,47.9,29.58,SSW,209,5.0,7.0,73,0.00,,,0.00,Wunderground v.1.15,2013-03-12 18:19:00,
2013-03-12 19:34:00,56.1,47.6,29.58,SSW,204,4.0,4.0,73,0.00,,,0.00,Wunderground v.1.15,2013-03-12 18:34:00,
2013-03-12 19:44:00,56.1,47.9,29.58,SSW,213,4.0,4.0,74,0.00,,,0.00,Wunderground v.1.15,2013-03-12 18:44:00,
2013-03-12 19:49:00,56.2,48.0,29.58,SSW,209,3.0,5.0,74,0.00,,,0.00,Wunderground v.1.15,2013-03-12 18:49:00,
2013-03-12 20:04:00,56.2,48.0,29.57,SW,215,3.0,3.0,74,0.00,,,0.00,Wunderground v.1.15,2013-03-12 19:04:00,
2013-03-12 20:09:00,56.1,47.9,29.57,SW,215,2.0,3.0,74,0.00,,,0.00,Wunderground v.1.15,2013-03-12 19:09:00,
2013-03-12 20:14:00,56.0,47.8,29.57,SW,219,3.0,4.0,74,0.00,,,0.00,Wunderground v.1.15,2013-03-12 19:14:00,
2013-03-12 20:23:00,56.1,48.3,29.57,SW,227,3.0,3.0,75,0.00,,,0.00,Wunderground v.1.15,2013-03-12 19:23:00,
2013-03-12 20:34:00,56.1,48.3,29.57,SSW,213,2.0,2.0,75,0.00,,,0.00,Wunderground v.1.15,2013-03-12 19:34:00,
2013-03-12 20:44:00,56.6,49.5,29.57,SW,226,3.0,3.0,77,0.00,,,0.00,Wunderground v.1.15,2013-03-12 19:44:00,
2013-03-12 20:49:00,56.6,49.8,29.57,SSW,197,3.0,3.0,78,0.00,,,0.00,Wunderground v.1.15,2013-03-12 19:49:00,
2013-03-12 20:59:00,56.6,49.8,29.57,SSW,212,3.0,3.0,78,0.00,,,0.00,Wunderground v.1.15,2013-03-12 19:59:00,
2013-03-12 21:09:00,56.5,50.1,29.57,SSW,193,4.0,5.0,79,0.00,,,0.00,Wunderground v.1.15,2013-03-12 20:09:00,
2013-03-12 21:14:00,56.6,50.5,29.57,SSW,196,4.0,5.0,80,0.00,,,0.00,Wunderground v.1.15,2013-03-12 20:14:00,
2013-03-12 21:24:00,56.6,50.8,29.56,SSW,201,2.0,5.0,81,0.00,,,0.00,Wunderground v.1.15,2013-03-12 20:24:00,
2013-03-12 21:29:00,56.4,50.6,29.56,SW,218,2.0,4.0,81,0.00,,,0.00,Wunderground v.1.15,2013-03-12 20:29:00,
2013-03-12 21:39:00,56.3,50.5,29.56,SSE,167,2.0,4.0,81,0.00,,,0.00,Wunderground v.1.15,2013-03-12 20:39:00,
2013-03-12 21:44:00,56.3,50.5,29.56,SSE,168,1.0,1.0,81,0.00,,,0.00,Wunderground v.1.15,2013-03-12 20:44:00,
2013-03-12 21:49:00,56.4,51.0,29.55,SSE,168,1.0,1.0,82,0.00,,,0.00,Wunderground v.1.15,2013-03-12 20:49:00,
2013-03-12 21:59:00,56.4,51.3,29.55,South,176,1.0,6.0,83,0.00,,,0.00,Wunderground v.1.15,2013-03-12 20:59:00,
2013-03-12 22:09:00,56.3,51.2,29.55,South,178,2.0,2.0,83,0.00,,,0.00,Wunderground v.1.15,2013-03-12 21:09:00,
2013-03-12 22:14:00,56.3,51.5,29.55,South,178,1.0,2.0,84,0.00,,,0.00,Wunderground v.1.15,2013-03-12 21:14:00,
2013-03-12 22:24:00,53.6,47.6,29.55,NNE,12,2.0,2.0,80,0.00,,,0.00,Wunderground v.1.15,2013-03-12 21:24:00,
2013-03-12 22:33:00,52.6,46.6,29.55,NNE,12,1.0,1.0,80,0.00,,,0.00,Wunderground v.1.15,2013-03-12 21:33:00,
2013-03-12 22:49:00,51.9,45.3,29.54,NNW,331,1.0,2.0,78,0.00,,,0.00,Wunderground v.1.15,2013-03-12 21:49:00,
2013-03-12 22:54:00,51.9,45.3,29.55,NNW,332,1.0,2.0,78,0.00,,,0.00,Wunderground v.1.15,2013-03-12 21:54:00,
2013-03-12 22:59:00,51.9,44.9,29.54,NNW,333,2.0,3.0,77,0.00,,,0.00,Wunderground v.1.15,2013-03-12 21:59:00,
2013-03-12 23:09:00,52.0,44.7,29.54,NNW,333,1.0,3.0,76,0.00,,,0.00,Wunderground v.1.15,2013-03-12 22:09:00,
2013-03-12 23:14:00,52.1,45.1,29.53,NNW,333,0.0,0.0,77,0.00,,,0.00,Wunderground v.1.15,2013-03-12 22:14:00,
2013-03-12 23:23:00,52.0,44.7,29.53,NNW,333,1.0,1.0,76,0.00,,,0.00,Wunderground v.1.15,2013-03-12 22:23:00,
2013-03-12 23:29:00,51.9,44.6,29.53,NNW,333,1.0,2.0,76,0.00,,,0.00,Wunderground v.1.15,2013-03-12 22:29:00,
2013-03-12 23:39:00,51.6,43.9,29.52,NNW,340,2.0,2.0,75,0.00,,,0.00,Wunderground v.1.15,2013-03-12 22:39:00,
2013-03-12 23:44:00,51.4,43.7,29.52,NNW,340,1.0,2.0,75,0.00,,,0.00,Wunderground v.1.15,2013-03-12 22:44:00,
2013-03-12 23:53:00,50.9,43.6,29.52,NNW,340,3.0,3.0,76,0.00,,,0.00,Wunderground v.1.15,2013-03-12 22:53:00,